RPA4433 KLGA-KDTW

Flight info

Callsign RPA4433
Flight time 1h 23m
Altitude 34000
Route GAYEL J95 CFB TRAAD JACCI FERRL2
Aircraft E170/M-SDE3GILORVW/S

Departure

Time 2026-05-06 00:30
Airport LaGuardia Airport (KLGA)

Arrival

Time 2026-05-06 01:53
Airport Detroit Metropolitan Wayne County Airport (KDTW)
Time Latitude Longitude Altitude Speed Heading
2026-05-06 00:03 40.77544 -73.87131 17 ft 0 kts 302°
2026-05-06 00:20 40.77537 -73.87117 17 ft 4 kts 302°
2026-05-06 00:21 40.77525 -73.87091 18 ft 4 kts 308°
2026-05-06 00:21 40.77504 -73.87083 20 ft 4 kts 21°
2026-05-06 00:21 40.77491 -73.87091 21 ft 3 kts 32°
2026-05-06 00:21 40.77514 -73.87072 18 ft 4 kts 32°
2026-05-06 00:22 40.77537 -73.87054 17 ft 4 kts 32°
2026-05-06 00:22 40.77560 -73.87035 18 ft 4 kts 32°
2026-05-06 00:22 40.77578 -73.87020 17 ft 0 kts 32°
2026-05-06 00:24 40.77594 -73.87006 18 ft 6 kts 32°
2026-05-06 00:24 40.77653 -73.87000 11 ft 10 kts 349°
2026-05-06 00:24 40.77712 -73.86998 10 ft 3 kts 317°
2026-05-06 00:25 40.77737 -73.87054 12 ft 12 kts 298°
2026-05-06 00:25 40.77792 -73.87171 11 ft 17 kts 301°
2026-05-06 00:25 40.77857 -73.87310 11 ft 18 kts 301°
2026-05-06 00:25 40.77925 -73.87450 14 ft 18 kts 303°
2026-05-06 00:26 40.77995 -73.87595 15 ft 20 kts 302°
2026-05-06 00:26 40.78064 -73.87744 14 ft 19 kts 301°
2026-05-06 00:26 40.78106 -73.87830 16 ft 0 kts 313°
2026-05-06 00:26 40.78107 -73.87831 16 ft 0 kts 313°
2026-05-06 00:27 40.78108 -73.87832 16 ft 0 kts 314°
2026-05-06 00:27 40.78122 -73.87846 -5 ft 7 kts 331°
2026-05-06 00:27 40.78177 -73.87867 17 ft 8 kts
2026-05-06 00:27 40.78209 -73.87817 19 ft 9 kts 107°
2026-05-06 00:28 40.78130 -73.87653 15 ft 54 kts 125°
2026-05-06 00:28 40.77780 -73.86903 24 ft 134 kts 127°
2026-05-06 00:28 40.77229 -73.85644 399 ft 183 kts 126°
2026-05-06 00:28 40.76469 -73.84298 553 ft 179 kts 141°
2026-05-06 00:29 40.75433 -73.83619 497 ft 153 kts 170°
2026-05-06 00:29 40.74417 -73.83436 367 ft 138 kts 170°
2026-05-06 00:29 40.73547 -73.83260 415 ft 130 kts 173°
2026-05-06 00:29 40.72603 -73.83100 231 ft 140 kts 171°
2026-05-06 00:30 40.71522 -73.82981 640 ft 161 kts 179°
2026-05-06 00:30 40.70353 -73.83159 1449 ft 186 kts 202°
2026-05-06 00:30 40.69158 -73.84281 1682 ft 239 kts 227°
2026-05-06 00:30 40.68455 -73.86317 2737 ft 247 kts 257°
2026-05-06 00:31 40.68570 -73.88340 3779 ft 205 kts 277°
2026-05-06 00:31 40.68659 -73.90128 3379 ft 186 kts 253°
2026-05-06 00:31 40.68537 -73.91744 3144 ft 179 kts 270°
2026-05-06 00:31 40.68936 -73.93278 2962 ft 174 kts 286°
2026-05-06 00:32 40.69481 -73.94655 2703 ft 176 kts 288°
2026-05-06 00:32 40.70158 -73.96154 2218 ft 204 kts 298°
2026-05-06 00:32 40.71344 -73.97412 1682 ft 233 kts 323°
2026-05-06 00:32 40.72757 -73.98255 2021 ft 206 kts 328°
2026-05-06 00:33 40.74028 -73.98897 2690 ft 195 kts 328°
2026-05-06 00:33 40.75402 -73.99611 3268 ft 229 kts 328°
2026-05-06 00:33 40.76937 -74.00455 4131 ft 247 kts 329°
2026-05-06 00:33 40.78584 -74.01359 5000 ft 264 kts 329°
2026-05-06 00:34 40.80327 -74.02313 6008 ft 275 kts 330°
2026-05-06 00:34 40.82098 -74.03274 7173 ft 276 kts 330°
2026-05-06 00:34 40.83877 -74.04245 8260 ft 278 kts 331°
2026-05-06 00:34 40.85645 -74.05212 9265 ft 280 kts 331°
2026-05-06 00:35 40.87458 -74.06205 10217 ft 284 kts 330°
2026-05-06 00:35 40.89334 -74.07240 10845 ft 299 kts 331°
2026-05-06 00:35 40.91286 -74.08312 11586 ft 308 kts 332°
2026-05-06 00:35 40.93285 -74.09411 12455 ft 314 kts 332°
2026-05-06 00:36 40.95307 -74.10522 13474 ft 316 kts 332°
2026-05-06 00:36 40.97359 -74.11652 14341 ft 323 kts 332°
2026-05-06 00:36 40.99457 -74.12810 15204 ft 331 kts 332°
2026-05-06 00:36 41.01601 -74.13993 16076 ft 337 kts 332°
2026-05-06 00:37 41.03792 -74.15202 16884 ft 344 kts 331°
2026-05-06 00:37 41.05994 -74.16419 17645 ft 352 kts 331°
2026-05-06 00:37 41.08277 -74.17683 18374 ft 359 kts 331°
2026-05-06 00:37 41.10594 -74.18964 19121 ft 363 kts 331°
2026-05-06 00:38 41.12930 -74.20259 19873 ft 368 kts 332°
2026-05-06 00:38 41.15308 -74.21578 20630 ft 372 kts 332°
2026-05-06 00:38 41.17710 -74.22909 21379 ft 376 kts 332°
2026-05-06 00:38 41.20139 -74.24258 22062 ft 380 kts 332°
2026-05-06 00:39 41.22590 -74.25619 22719 ft 384 kts 332°
2026-05-06 00:39 41.25067 -74.26999 23362 ft 388 kts 332°
2026-05-06 00:39 41.27573 -74.28386 23930 ft 391 kts 332°
2026-05-06 00:39 41.30060 -74.29764 24522 ft 393 kts 332°
2026-05-06 00:40 41.32584 -74.31180 25150 ft 395 kts 332°
2026-05-06 00:40 41.35124 -74.32604 25738 ft 397 kts 331°
2026-05-06 00:40 41.37674 -74.34033 26317 ft 399 kts 331°
2026-05-06 00:40 41.40116 -74.35725 26848 ft 392 kts 318°
2026-05-06 00:41 41.41982 -74.38281 27364 ft 381 kts 299°
2026-05-06 00:41 41.43342 -74.41298 27905 ft 380 kts 295°
2026-05-06 00:41 41.44650 -74.44397 28079 ft 390 kts 294°
2026-05-06 00:41 41.45980 -74.47619 28095 ft 403 kts 294°
2026-05-06 00:42 41.47352 -74.50947 28128 ft 415 kts 294°
2026-05-06 00:42 41.50184 -74.57775 28516 ft 429 kts 296°
2026-05-06 00:42 41.51689 -74.61220 28931 ft 430 kts 296°
2026-05-06 00:43 41.53184 -74.64662 29490 ft 427 kts 296°
2026-05-06 00:43 41.54668 -74.68079 30072 ft 424 kts 296°
2026-05-06 00:43 41.56132 -74.71468 30621 ft 420 kts 296°
2026-05-06 00:43 41.57583 -74.74830 31152 ft 416 kts 296°
2026-05-06 00:44 41.59020 -74.78165 31645 ft 413 kts 296°
2026-05-06 00:44 41.60446 -74.81482 32015 ft 413 kts 296°
2026-05-06 00:44 41.61884 -74.84848 32075 ft 419 kts 296°
2026-05-06 00:44 41.63332 -74.88236 32319 ft 421 kts 296°
2026-05-06 00:45 41.64781 -74.91633 32648 ft 420 kts 296°
2026-05-06 00:45 41.66224 -74.95020 33015 ft 418 kts 296°
2026-05-06 00:45 41.67661 -74.98394 33389 ft 417 kts 296°
2026-05-06 00:45 41.69071 -75.01713 33753 ft 415 kts 296°
2026-05-06 00:46 41.70495 -75.05066 33875 ft 417 kts 296°
2026-05-06 00:46 41.73328 -75.11747 33854 ft 410 kts 296°
2026-05-06 00:47 41.76140 -75.18395 33854 ft 410 kts 296°
2026-05-06 00:47 41.78946 -75.25043 33850 ft 410 kts 296°
2026-05-06 00:48 41.81751 -75.31701 33845 ft 410 kts 296°
2026-05-06 00:48 41.84549 -75.38361 33844 ft 410 kts 296°
2026-05-06 00:49 41.87325 -75.44982 33858 ft 411 kts 295°
2026-05-06 00:49 41.90138 -75.51705 33869 ft 414 kts 295°
2026-05-06 00:50 41.92955 -75.58453 33869 ft 414 kts 295°
2026-05-06 00:50 41.95769 -75.65214 33847 ft 415 kts 295°
2026-05-06 00:51 41.98578 -75.71978 33838 ft 414 kts 295°
2026-05-06 00:51 42.01364 -75.78703 33843 ft 414 kts 295°
2026-05-06 00:52 42.04141 -75.85418 33830 ft 410 kts 295°
2026-05-06 00:52 42.06911 -75.92133 33835 ft 411 kts 295°
2026-05-06 00:53 42.09680 -75.98860 33826 ft 411 kts 295°
2026-05-06 00:53 42.12445 -76.05592 33827 ft 411 kts 295°
2026-05-06 00:54 42.15110 -76.12327 33845 ft 407 kts 289°
2026-05-06 00:54 42.15823 -76.15991 33861 ft 402 kts 276°
2026-05-06 00:54 42.16153 -76.19707 33820 ft 396 kts 275°
2026-05-06 00:55 42.16746 -76.27059 33826 ft 395 kts 275°
2026-05-06 00:55 42.17324 -76.34422 33827 ft 395 kts 275°
2026-05-06 00:56 42.17890 -76.41789 33826 ft 395 kts 275°
2026-05-06 00:56 42.18445 -76.49109 33827 ft 395 kts 275°
2026-05-06 00:57 42.18994 -76.56457 33835 ft 393 kts 274°
2026-05-06 00:57 42.19539 -76.63793 33828 ft 393 kts 274°
2026-05-06 00:58 42.20079 -76.71144 33832 ft 394 kts 274°
2026-05-06 00:58 42.20612 -76.78444 33829 ft 394 kts 274°
2026-05-06 00:59 42.21144 -76.85796 33820 ft 394 kts 274°
2026-05-06 00:59 42.21670 -76.93135 33825 ft 393 kts 274°
2026-05-06 01:00 42.22188 -77.00465 33837 ft 392 kts 274°
2026-05-06 01:00 42.22700 -77.07746 33829 ft 393 kts 274°
2026-05-06 01:01 42.23210 -77.15082 33820 ft 392 kts 274°
2026-05-06 01:01 42.23716 -77.22411 33824 ft 392 kts 274°
2026-05-06 01:02 42.24219 -77.29705 33826 ft 390 kts 274°
2026-05-06 01:02 42.24713 -77.36941 33832 ft 390 kts 274°
2026-05-06 01:03 42.25205 -77.44226 33834 ft 390 kts 274°
2026-05-06 01:03 42.25716 -77.51510 33833 ft 390 kts 277°
2026-05-06 01:04 42.26931 -77.58675 33842 ft 392 kts 281°
2026-05-06 01:04 42.28202 -77.65771 33848 ft 392 kts 281°
2026-05-06 01:05 42.29489 -77.72915 33859 ft 392 kts 281°
2026-05-06 01:05 42.30777 -77.80074 33860 ft 393 kts 281°
2026-05-06 01:06 42.32061 -77.87243 33838 ft 393 kts 281°
2026-05-06 01:06 42.33339 -77.94400 33851 ft 392 kts 281°
2026-05-06 01:07 42.34597 -78.01467 33876 ft 387 kts 281°
2026-05-06 01:07 42.35849 -78.08546 33875 ft 387 kts 281°
2026-05-06 01:08 42.37097 -78.15637 33877 ft 388 kts 281°
2026-05-06 01:08 42.38343 -78.22730 33884 ft 387 kts 281°
2026-05-06 01:09 42.39585 -78.29823 33892 ft 387 kts 281°
2026-05-06 01:09 42.40813 -78.36868 33888 ft 387 kts 281°
2026-05-06 01:10 42.42044 -78.43962 33895 ft 387 kts 281°
2026-05-06 01:10 42.43274 -78.51064 33884 ft 388 kts 281°
2026-05-06 01:11 42.44499 -78.58170 33886 ft 388 kts 281°
2026-05-06 01:11 42.45724 -78.65282 33887 ft 388 kts 281°
2026-05-06 01:12 42.46890 -78.72392 33904 ft 382 kts 275°
2026-05-06 01:12 42.47210 -78.79529 33883 ft 382 kts 272°
2026-05-06 01:13 42.47465 -78.86723 33881 ft 382 kts 272°
2026-05-06 01:13 42.47707 -78.93911 33890 ft 382 kts 271°
2026-05-06 01:14 42.48056 -79.04696 33892 ft 382 kts 271°
2026-05-06 01:14 42.48281 -79.11879 33895 ft 382 kts 271°
2026-05-06 01:15 42.48499 -79.19007 33902 ft 381 kts 271°
2026-05-06 01:15 42.48714 -79.26187 33901 ft 381 kts 271°
2026-05-06 01:16 42.48924 -79.33370 33899 ft 381 kts 271°
2026-05-06 01:16 42.49130 -79.40550 33897 ft 381 kts 271°
2026-05-06 01:17 42.49333 -79.47726 33904 ft 381 kts 271°
2026-05-06 01:17 42.49528 -79.54899 33898 ft 381 kts 271°
2026-05-06 01:18 42.49720 -79.62027 33896 ft 381 kts 271°
2026-05-06 01:18 42.49909 -79.69204 33897 ft 381 kts 271°
2026-05-06 01:19 42.50097 -79.76382 33897 ft 381 kts 271°
2026-05-06 01:19 42.50281 -79.83539 33897 ft 378 kts 271°
2026-05-06 01:20 42.50458 -79.90669 33889 ft 379 kts 271°
2026-05-06 01:20 42.50627 -79.97797 33891 ft 379 kts 271°
2026-05-06 01:21 42.50797 -80.04930 33886 ft 379 kts 271°
2026-05-06 01:21 42.50882 -80.08461 33616 ft 381 kts 271°
2026-05-06 01:21 42.50964 -80.12051 33383 ft 382 kts 271°
2026-05-06 01:22 42.51048 -80.15646 33158 ft 382 kts 271°
2026-05-06 01:22 42.51129 -80.19239 32953 ft 380 kts 271°
2026-05-06 01:22 42.51205 -80.22824 32747 ft 381 kts 270°
2026-05-06 01:22 42.51278 -80.26421 32539 ft 382 kts 270°
2026-05-06 01:23 42.51352 -80.30029 32336 ft 383 kts 270°
2026-05-06 01:23 42.51428 -80.33643 32123 ft 384 kts 270°
2026-05-06 01:23 42.51506 -80.37222 31918 ft 386 kts 270°
2026-05-06 01:23 42.51577 -80.40864 31712 ft 387 kts 270°
2026-05-06 01:24 42.51649 -80.44511 31503 ft 388 kts 270°
2026-05-06 01:24 42.51720 -80.48174 31305 ft 389 kts 270°
2026-05-06 01:24 42.51796 -80.51846 31101 ft 390 kts 270°
2026-05-06 01:24 42.51869 -80.55525 30920 ft 389 kts 270°
2026-05-06 01:25 42.51934 -80.59183 30675 ft 388 kts 270°
2026-05-06 01:25 42.52002 -80.62852 30429 ft 388 kts 269°
2026-05-06 01:25 42.52024 -80.66444 30177 ft 376 kts 269°
2026-05-06 01:25 42.52043 -80.69956 29928 ft 370 kts 269°
2026-05-06 01:26 42.52066 -80.73384 29652 ft 367 kts 269°
2026-05-06 01:26 42.52092 -80.76822 29361 ft 360 kts 268°
2026-05-06 01:26 42.52120 -80.80168 29072 ft 351 kts 268°
2026-05-06 01:26 42.52147 -80.83458 28795 ft 348 kts 268°
2026-05-06 01:27 42.52174 -80.86737 28528 ft 348 kts 268°
2026-05-06 01:27 42.52202 -80.90016 28258 ft 348 kts 268°
2026-05-06 01:27 42.52229 -80.93302 28023 ft 348 kts 268°
2026-05-06 01:27 42.52259 -80.96579 27783 ft 348 kts 268°
2026-05-06 01:28 42.52288 -80.99863 27550 ft 348 kts 268°
2026-05-06 01:28 42.52317 -81.03143 27303 ft 348 kts 268°
2026-05-06 01:28 42.52343 -81.06373 27036 ft 347 kts 268°
2026-05-06 01:28 42.52368 -81.09632 26780 ft 346 kts 268°
2026-05-06 01:29 42.52392 -81.12885 26526 ft 344 kts 268°
2026-05-06 01:29 42.52414 -81.16127 26275 ft 344 kts 267°
2026-05-06 01:29 42.52436 -81.19362 26027 ft 343 kts 267°
2026-05-06 01:29 42.52456 -81.22587 25776 ft 342 kts 267°
2026-05-06 01:30 42.52475 -81.25807 25532 ft 341 kts 267°
2026-05-06 01:30 42.52494 -81.29024 25300 ft 340 kts 267°
2026-05-06 01:30 42.52511 -81.32218 25060 ft 338 kts 267°
2026-05-06 01:30 42.52527 -81.35406 24822 ft 338 kts 267°
2026-05-06 01:31 42.52495 -81.38582 24581 ft 336 kts 263°
2026-05-06 01:31 42.52253 -81.41683 24351 ft 335 kts 261°
2026-05-06 01:31 42.51999 -81.44819 24120 ft 335 kts 261°
2026-05-06 01:31 42.51751 -81.47952 23887 ft 334 kts 261°
2026-05-06 01:32 42.51508 -81.51081 23652 ft 334 kts 261°
2026-05-06 01:32 42.51268 -81.54205 23419 ft 333 kts 261°
2026-05-06 01:32 42.51029 -81.57321 23150 ft 332 kts 261°
2026-05-06 01:32 42.50793 -81.60423 22912 ft 329 kts 261°
2026-05-06 01:33 42.50558 -81.63486 23038 ft 330 kts 261°
2026-05-06 01:33 42.50319 -81.66616 22484 ft 333 kts 261°
2026-05-06 01:33 42.50084 -81.69700 22027 ft 327 kts 261°
2026-05-06 01:33 42.49851 -81.72742 21575 ft 323 kts 261°
2026-05-06 01:34 42.49619 -81.75753 21143 ft 320 kts 261°
2026-05-06 01:34 42.49392 -81.78701 20725 ft 318 kts 261°
2026-05-06 01:34 42.49161 -81.81676 20304 ft 317 kts 261°
2026-05-06 01:34 42.48929 -81.84637 19881 ft 315 kts 261°
2026-05-06 01:35 42.48699 -81.87581 19463 ft 314 kts 261°
2026-05-06 01:35 42.48469 -81.90512 19051 ft 312 kts 261°
2026-05-06 01:35 42.48240 -81.93429 18636 ft 311 kts 261°
2026-05-06 01:35 42.48010 -81.96332 18216 ft 309 kts 261°
2026-05-06 01:36 42.47782 -81.99220 17790 ft 307 kts 261°
2026-05-06 01:36 42.47632 -82.01118 17566 ft 305 kts 261°
2026-05-06 01:36 42.47331 -82.04892 17140 ft 307 kts 261°
2026-05-06 01:36 42.47102 -82.07756 16735 ft 305 kts 261°
2026-05-06 01:37 42.46874 -82.10603 16329 ft 303 kts 261°
2026-05-06 01:37 42.46644 -82.13439 15929 ft 302 kts 261°
2026-05-06 01:37 42.46417 -82.16260 15532 ft 301 kts 261°
2026-05-06 01:37 42.46189 -82.19071 15137 ft 300 kts 261°
2026-05-06 01:38 42.46039 -82.20927 14873 ft 299 kts 261°
2026-05-06 01:38 42.45815 -82.23686 14471 ft 291 kts 261°
2026-05-06 01:38 42.45598 -82.26366 14086 ft 282 kts 260°
2026-05-06 01:38 42.45385 -82.28975 13721 ft 275 kts 260°
2026-05-06 01:39 42.45176 -82.31514 13339 ft 268 kts 260°
2026-05-06 01:39 42.44961 -82.33988 13018 ft 261 kts 258°
2026-05-06 01:39 42.44661 -82.36398 12670 ft 259 kts 257°
2026-05-06 01:39 42.44361 -82.38807 12334 ft 260 kts 258°
2026-05-06 01:40 42.44062 -82.41223 11983 ft 260 kts 258°
2026-05-06 01:40 42.43767 -82.43634 11634 ft 259 kts 258°
2026-05-06 01:40 42.43478 -82.45999 11296 ft 258 kts 258°
2026-05-06 01:40 42.43186 -82.48396 10957 ft 258 kts 258°
2026-05-06 01:41 42.42894 -82.50788 10612 ft 258 kts 258°
2026-05-06 01:41 42.42520 -82.53858 10176 ft 258 kts 258°
2026-05-06 01:41 42.42228 -82.56249 9828 ft 257 kts 258°
2026-05-06 01:41 42.41936 -82.58634 9463 ft 257 kts 258°
2026-05-06 01:42 42.41645 -82.61011 9135 ft 255 kts 258°
2026-05-06 01:42 42.41353 -82.63374 8774 ft 255 kts 259°
2026-05-06 01:42 42.41060 -82.65738 8436 ft 254 kts 259°
2026-05-06 01:42 42.40768 -82.68094 8105 ft 254 kts 259°
2026-05-06 01:43 42.40477 -82.70448 7789 ft 253 kts 259°
2026-05-06 01:43 42.40190 -82.72764 7466 ft 253 kts 260°
2026-05-06 01:43 42.39902 -82.75107 7203 ft 251 kts 260°
2026-05-06 01:43 42.39609 -82.77420 7013 ft 249 kts 259°
2026-05-06 01:44 42.39352 -82.79752 6831 ft 253 kts 262°
2026-05-06 01:44 42.39117 -82.82123 6647 ft 255 kts 262°
2026-05-06 01:44 42.38879 -82.84499 6453 ft 253 kts 262°
2026-05-06 01:44 42.38651 -82.86849 6262 ft 251 kts 262°
2026-05-06 01:45 42.38418 -82.89190 6064 ft 252 kts 262°
2026-05-06 01:45 42.38181 -82.91532 5847 ft 248 kts 262°
2026-05-06 01:45 42.37945 -82.93774 5625 ft 240 kts 262°
2026-05-06 01:45 42.37705 -82.95980 5402 ft 234 kts 262°
2026-05-06 01:46 42.37462 -82.98124 5187 ft 228 kts 263°
2026-05-06 01:46 42.37219 -83.00217 4981 ft 223 kts 263°
2026-05-06 01:46 42.36973 -83.02264 4788 ft 218 kts 262°
2026-05-06 01:46 42.36718 -83.04271 4612 ft 216 kts 262°
2026-05-06 01:47 42.36460 -83.06271 4450 ft 215 kts 262°
2026-05-06 01:47 42.36201 -83.08264 4293 ft 215 kts 262°
2026-05-06 01:47 42.35945 -83.10254 4146 ft 215 kts 263°
2026-05-06 01:47 42.35693 -83.12223 3993 ft 215 kts 262°
2026-05-06 01:48 42.35441 -83.14213 3841 ft 215 kts 263°
2026-05-06 01:48 42.35188 -83.16194 3684 ft 213 kts 262°
2026-05-06 01:48 42.34947 -83.18168 3524 ft 213 kts 263°
2026-05-06 01:48 42.34700 -83.20135 3365 ft 212 kts 263°
2026-05-06 01:49 42.34453 -83.22092 3208 ft 210 kts 262°
2026-05-06 01:49 42.33936 -83.23905 3003 ft 209 kts 235°
2026-05-06 01:49 42.32940 -83.25208 3031 ft 194 kts 215°
2026-05-06 01:49 42.31781 -83.26040 2910 ft 185 kts 213°
2026-05-06 01:50 42.30697 -83.26914 2672 ft 175 kts 215°
2026-05-06 01:50 42.29684 -83.27690 2433 ft 163 kts 212°
2026-05-06 01:50 42.28734 -83.28377 2223 ft 151 kts 213°
2026-05-06 01:50 42.27805 -83.29071 2000 ft 153 kts 214°
2026-05-06 01:51 42.26875 -83.29768 1816 ft 154 kts 211°
2026-05-06 01:51 42.26250 -83.30253 1787 ft 152 kts 216°
2026-05-06 01:51 42.24985 -83.31161 1546 ft 153 kts 212°
2026-05-06 01:51 42.24100 -83.31827 1291 ft 140 kts 211°
2026-05-06 01:52 42.23546 -83.32240 1129 ft 134 kts 209°
2026-05-06 01:52 42.22753 -83.32827 900 ft 127 kts 213°
2026-05-06 01:52 42.21973 -83.33408 695 ft 130 kts 211°
2026-05-06 01:52 42.21243 -83.33951 647 ft 104 kts 209°
2026-05-06 01:53 42.20766 -83.34301 643 ft 59 kts 212°
2026-05-06 01:53 42.20593 -83.34516 646 ft 19 kts 233°
2026-05-06 01:53 42.20560 -83.34612 645 ft 11 kts 257°
2026-05-06 01:53 42.20558 -83.34642 645 ft 2 kts 272°
2026-05-06 01:54 42.20562 -83.34655 645 ft 3 kts 316°
2026-05-06 01:54 42.20589 -83.34662 645 ft 7 kts
2026-05-06 01:54 42.20641 -83.34637 646 ft 9 kts 28°
2026-05-06 01:54 42.20705 -83.34590 645 ft 12 kts 28°
2026-05-06 01:55 42.20788 -83.34530 645 ft 15 kts 28°
2026-05-06 01:55 42.20888 -83.34459 645 ft 14 kts 29°
2026-05-06 01:55 42.20980 -83.34391 645 ft 14 kts 25°
2026-05-06 01:55 42.21018 -83.34390 645 ft 3 kts 322°
2026-05-06 01:56 42.21040 -83.34431 645 ft 8 kts 301°
2026-05-06 01:56 42.21075 -83.34516 645 ft 13 kts 298°
2026-05-06 01:56 42.21125 -83.34646 645 ft 18 kts 296°
2026-05-06 01:56 42.21154 -83.34709 643 ft 0 kts 302°
2026-05-06 01:57 42.21160 -83.34722 643 ft 5 kts 302°
2026-05-06 01:57 42.21188 -83.34794 641 ft 11 kts 300°
2026-05-06 01:57 42.21232 -83.34899 642 ft 13 kts 302°
2026-05-06 01:58 42.21268 -83.34930 645 ft 5 kts
2026-05-06 01:58 42.21326 -83.34944 644 ft 11 kts 328°
2026-05-06 01:58 42.21403 -83.35007 646 ft 17 kts 329°
2026-05-06 01:58 42.21499 -83.35087 644 ft 14 kts 328°
2026-05-06 01:59 42.21569 -83.35145 644 ft 12 kts 316°
2026-05-06 01:59 42.21633 -83.35231 644 ft 14 kts 315°
2026-05-06 01:59 42.21713 -83.35327 644 ft 14 kts 326°
2026-05-06 01:59 42.21762 -83.35333 642 ft 7 kts
2026-05-06 02:00 42.21807 -83.35342 643 ft 6 kts 315°
2026-05-06 02:00 42.21822 -83.35399 643 ft 7 kts 271°
2026-05-06 02:00 42.21822 -83.35482 643 ft 9 kts 275°
2026-05-06 02:00 42.21845 -83.35520 643 ft 7 kts 330°
2026-05-06 02:01 42.21910 -83.35572 643 ft 14 kts 327°
2026-05-06 02:01 42.21975 -83.35580 643 ft 8 kts 27°
2026-05-06 02:01 42.22034 -83.35538 643 ft 11 kts 29°
2026-05-06 02:01 42.22111 -83.35481 644 ft 13 kts 31°
2026-05-06 02:02 42.22195 -83.35418 644 ft 14 kts 28°
2026-05-06 02:02 42.22293 -83.35342 644 ft 17 kts 38°
2026-05-06 02:02 42.22396 -83.35252 645 ft 16 kts 33°
2026-05-06 02:02 42.22492 -83.35184 644 ft 17 kts 28°
2026-05-06 02:03 42.22601 -83.35104 644 ft 19 kts 28°
2026-05-06 02:03 42.22658 -83.35008 644 ft 9 kts 86°
2026-05-06 02:03 42.22688 -83.34933 644 ft 11 kts 28°
2026-05-06 02:03 42.22763 -83.34878 644 ft 14 kts 32°
2026-05-06 02:04 42.22859 -83.34816 645 ft 16 kts 22°
2026-05-06 02:04 42.22909 -83.34761 645 ft 6 kts 63°
2026-05-06 02:04 42.22906 -83.34722 644 ft 2 kts 116°
2026-05-06 02:04 42.22898 -83.34702 645 ft 1 kts 118°
2026-05-06 02:05 42.22895 -83.34696 644 ft 1 kts 118°
2026-05-06 02:05 42.22894 -83.34692 645 ft 0 kts 118°
2026-05-06 02:05 42.22893 -83.34691 645 ft 0 kts 118°